Погода Ивано-Франковск

Поиск расширенной информации на нашем сайте:

Полезная информация:

Новости сайта



02.01.2020
Опубликован Долгосрочный прогноз погоды по городам России и ближнего зарубежья на январь 2020 года.
Карты: Прогноз на январь и февраль 2020 года, Сравнение прогнозируемой аномалии приземной температуры воздуха на январь 2020 года по разным моделям.




Погода Ивано-Франковск - сегодня

Время (UTC), дата Ветер
(°,м/с) 
Видим.   Явления Облачность Т
(°С)
Тd
(°С)
f(%) Тe
(°С)
Pmin
(гПа)
dP
(гПа)
Po
(мм)
O2
(г/м3)
Тmin Tmax R s Состояние
почвы
00 19.01.20 090 (В) 10 км    10/10 300 м 
[St]
-1.5 -3.2 88 -1  1026.5  0.1  743  302           
03 19.01.20 220 (ЮЗ) 10 км    10/10 300 м 
[St]
-1.4 -3.1 88 -1  1027  0.5  744  302           
06 19.01.20 тихо ()   10 км    10/10 300 м 
[St]
-1.5 -2.9 90 -2  1028.2  1.1  745  302  -1.7         
09 19.01.20 тихо ()   10 км    10/10 300 м 
[St]
-1.2 -3.2 86 -1  1029.7  1.5  746  302           
12 19.01.20 340 (С) 10 км    10/10 360 м 
[St]
-1 -3.5 83 -2  1030.8  1.1  747  302           
15 19.01.20 060 (СВ) 10 км    10/10 300 м 
[St]
-1.3 -3.6 84 -1  1033  2.1  748  303           
18 19.01.20 тихо ()   10 км  в посл. час морось{снег}  10/10 420 м 
[St]
-1.2 -3.8 82 -1  1035.4  2.3  750  304    -1  0.0     
21 19.01.20 270 (З) 10 км    10/10 330 м 
[St]
-1.2 -3.5 84 -2  1036.9  1.5  751  304           
00 20.01.20 260 (З) 10 км    10/10 420 м 
[St]
-1.1 -3.7 82 -2  1039  752  305           
03 20.01.20 280 (З) 10 км    10/10 400 м 
[St]
-0.9 -3.1 85 -2  1040.3  1.3  753  305           
06 20.01.20 280 (З) 10 км    10/10 480 м 
[St]
-0.8 -3.6 81 -3  1042  1.6  755  305  -1.3         
09 20.01.20 280 (З) 10 км    10/10 420 м 
[St]
-0.3 -2.7 84 -2  1043.7  1.8  756  305           
12 20.01.20 230 (ЮЗ) 10 км    10/10 500 м 
[Sc]
+0.3 -3 78 1044.4  0.7  757  305           
15 20.01.20 290 (З) 12000 м    10/10 330 м 
[St]
+0.6 -1.7 85 -2  1044.9  0.5  757  305           
18 20.01.20 290 (З) 10 км    10/10 360 м 
[St]
+0.7 -1.9 83 -1  1045.3  0.4  757  305    +0.8       
21 20.01.20 280 (З) 10 км    9/9 600 м 
[Sc]
+0.9 -2.4 79 1044.7  -0.5  757  304           
00 21.01.20 290 (З) 10 км    10/10 660 м 
[Sc]
+1.1 -2.8 75 -2  1043.9  -0.8  756  304           
03 21.01.20 280 (З) 20000 м    10/10 570 м 
[Sc]
+0.2 -3.5 76 -1  1042.2  -1.7  755  304           
06 21.01.20 тихо ()   15000 м    3/0 средняя 
[Ac trans]
-3.4 -4.5 92 -3  1041.8  -0.9  754  308  -4.2         
09 21.01.20 310 (СЗ) 20000 м    4/0 средняя 
[Ac trans]
+2.3 -3.7 64 +1  1039.5  -1.5  753  301           
12 21.01.20 280 (З) 50000 м    4/0 средняя 
[Ac trans]
+8 -7.1 33 +6  1036.6  -2.1  752  295           
15 21.01.20 270 (З) 50000 м    4/0 средняя 
[Ac trans]
+5 -7.9 39 +3  1034.9  -2  750  298           
18 21.01.20 270 (З) 50000 м    4/0 средняя 
[Ac trans]
+5.2 -8 38 +3  1032.8  -2  749  297    +8.2       
21 21.01.20 270 (З) 10 км    ясно 
+4.2 -6.4 46 +2  1032.4  -0.5  748  298           
00 22.01.20 280 (З) 10 км    ясно 
+3 -6.2 51 +1  1030.3  -2.2  747  298           
Время (UTC), дата Ветер
(°,м/с) 
Видим.   Явления Облачность Т
(°С)
Тd
(°С)
f(%) Тe
(°С)
Pmin
(гПа)
dP
(гПа)
Po
(мм)
O2
(г/м3)
Тmin Tmax R s Состояние
почвы

Для получения пояснительной информации подведите курсор к названию столбца.

ПОГОДА Ивано-Франковск - архив

Всё, что Вы хотите узнать о погоде Ивано-Франковск - удобно и подробно!

Выберите нужную дату (начиная с 1 января 2019* года) и нажмите кнопку "Найти".
Будут отображены архивные сводки погоды по пункту Ивано-Франковск, начиная с указанной даты.


Отображать данные в формате CSV (для использования в таблицах Excel)


Внимание! Наш архив погоды предназначен исключительно для личного некоммерческого использования в познавательных целях. Если Вам необходимы официальные справки о состоянии погоды (для производственных, юридических, коммерческих и т.п. целей), обращайтесь в органы Росгидромета.

*Примечание: данная дата относится к архиву по метеостанциям СССР (Россия, СНГ, Балтия).
Архив по метеостанциям Зарубежной Европы и Азии (кроме Китая) хранится 10 дней, по другим регионам земного шара (Китай, Африка, Америка, Австралия, Океания) - 1 день.

Ивано-Франковск - район местоположения метеостанции


Название, широта, долгота, высота метеостанции:
Ивано-Франковск 49°ш. 24.4°д. 280 м над ур. моря [Украина]

Дополнительная информация

В oтличие oт бoльшинства пoгoдных сайтoв мы публикуем пoдрoбную метеoинфoрмацию в детальнoм прoфессиoнальнoм фoрмате.

Характеристики температуры и влажнoсти вoздуха измеряются на высoте 2 м в тени вдали oт зданий и деревьев.
Скoрoсть ветра измеряется на высoте 10 м (на урoвне рoста челoвека скoрoсть ветра ниже в 1.5-2 раза). Если метеoстанция нахoдится в гoрoде или в лесу, тo скoрoсть ветра занижена на 2-4 м/с пo сравнению с oткрытым местoм. Скoрoсть ветра над акватoриями крупных рек и oзёр, а также на вершинах хoлмoв на 2-5 м/с выше, чем в oбычных услoвиях.
Атмoсфернoе давление в разных тoчках местнoсти мoжет значительнo oтличаться oт давления на метеoстанции, в зависимoсти oт услoвий рельефа (при пoдъёме на 10 м давление пoнижается примернo на 1 мм рт.ст.).